Tracking 29030 objects as of 25-Jun-2024
HD Live streaming from Space Station
objects crossing your sky now

ARIANE 44LP DEB

Track ARIANE 44LP DEB now!


NORAD ID: 25540
Int'l Code: 1988-109G
Perigee: 392.0 km
Apogee: 27,569.2 km
Inclination: 7.1 °
Period: 481.6 minutes
Semi major axis: 20351 km
RCS: 0.8784 m2 (medium)
Launch date: December 11, 1988
Source: France (FR)
Launch site: FRENCH GUIANA (FRGUI)

Note: This is SATELLITE DEBRIS
Your satellite tracking list
Your tracking list is empty




NASA's NSSDC Master Catalog

Two Line Element Set (TLE):
1 25540U 88109G   24176.88700591  .00003546  00000-0  50744-2 0  9990
2 25540   7.0934 357.1231 6676942 178.5465 185.5713  2.99023309252814
Source of the keplerian elements: AFSPC